SCX951 KRSW-KMSN

Flight info

Callsign SCX951
Flight time 2h 40m
Altitude 36000
Route CSHEL8 JAMIZ Q118 KAILL Q79 IIU J89 MACES OBK
Aircraft B738/M-SDE2E3FGHIRWXY/LB1

Departure

Time 2026-04-25 20:29
Airport Southwest Florida International Airport (KRSW)

Arrival

Time 2026-04-25 23:09
Airport Dane County Regional Truax Field (KMSN)
Time Latitude Longitude Altitude Speed Heading
2026-04-25 20:06 26.52950 -81.75454 37 ft 0 kts 278°
2026-04-25 20:20 26.52948 -81.75437 37 ft 4 kts 279°
2026-04-25 20:20 26.52944 -81.75407 36 ft 4 kts 281°
2026-04-25 20:21 26.52933 -81.75385 37 ft 4 kts 332°
2026-04-25 20:21 26.52909 -81.75379 37 ft 3 kts
2026-04-25 20:21 26.52906 -81.75379 37 ft 0 kts
2026-04-25 20:21 26.52912 -81.75378 37 ft 1 kts
2026-04-25 20:22 26.52928 -81.75375 37 ft 3 kts
2026-04-25 20:22 26.52945 -81.75372 37 ft 4 kts
2026-04-25 20:22 26.53007 -81.75362 37 ft 9 kts
2026-04-25 20:22 26.53088 -81.75348 37 ft 16 kts
2026-04-25 20:23 26.53219 -81.75327 37 ft 22 kts
2026-04-25 20:23 26.53361 -81.75411 38 ft 25 kts 324°
2026-04-25 20:23 26.53508 -81.75467 38 ft 23 kts 41°
2026-04-25 20:23 26.53615 -81.75309 38 ft 27 kts 53°
2026-04-25 20:24 26.53735 -81.75127 38 ft 31 kts 54°
2026-04-25 20:24 26.53867 -81.74926 36 ft 33 kts 54°
2026-04-25 20:24 26.53984 -81.74744 39 ft 25 kts 54°
2026-04-25 20:24 26.54082 -81.74593 39 ft 23 kts 54°
2026-04-25 20:25 26.54160 -81.74472 37 ft 17 kts 54°
2026-04-25 20:25 26.54229 -81.74367 36 ft 16 kts 53°
2026-04-25 20:25 26.54295 -81.74266 38 ft 16 kts 54°
2026-04-25 20:25 26.54358 -81.74168 36 ft 15 kts 54°
2026-04-25 20:26 26.54418 -81.74075 37 ft 14 kts 54°
2026-04-25 20:26 26.54472 -81.74001 37 ft 10 kts 36°
2026-04-25 20:26 26.54495 -81.73992 39 ft 0 kts
2026-04-25 20:26 26.54496 -81.73992 39 ft 1 kts
2026-04-25 20:27 26.54520 -81.74000 39 ft 8 kts 333°
2026-04-25 20:27 26.54546 -81.74086 39 ft 14 kts 245°
2026-04-25 20:27 26.54522 -81.74124 39 ft 0 kts 234°
2026-04-25 20:28 26.54516 -81.74134 38 ft 12 kts 234°
2026-04-25 20:28 26.54324 -81.74429 38 ft 81 kts 234°
2026-04-25 20:28 26.53866 -81.75133 38 ft 140 kts 234°
2026-04-25 20:28 26.53195 -81.76164 121 ft 182 kts 234°
2026-04-25 20:29 26.52456 -81.77301 913 ft 179 kts 234°
2026-04-25 20:29 26.51706 -81.78446 1701 ft 184 kts 234°
2026-04-25 20:29 26.50925 -81.79664 2225 ft 206 kts 235°
2026-04-25 20:29 26.50066 -81.81067 2502 ft 228 kts 243°
2026-04-25 20:30 26.49740 -81.82814 3080 ft 235 kts 267°
2026-04-25 20:30 26.49652 -81.84648 3725 ft 238 kts 266°
2026-04-25 20:30 26.49872 -81.86498 4144 ft 256 kts 292°
2026-04-25 20:30 26.51002 -81.88103 4560 ft 272 kts 326°
2026-04-25 20:31 26.52724 -81.88986 5341 ft 275 kts 343°
2026-04-25 20:31 26.54589 -81.89522 6109 ft 279 kts 347°
2026-04-25 20:31 26.56492 -81.90020 6886 ft 282 kts 346°
2026-04-25 20:31 26.58409 -81.90550 7635 ft 286 kts 346°
2026-04-25 20:32 26.60344 -81.91107 8371 ft 289 kts 345°
2026-04-25 20:32 26.62303 -81.91682 9092 ft 292 kts 346°
2026-04-25 20:32 26.64327 -81.91911 9770 ft 297 kts
2026-04-25 20:32 26.66387 -81.91585 10409 ft 304 kts
2026-04-25 20:33 26.68561 -81.91205 10586 ft 327 kts
2026-04-25 20:33 26.70861 -81.90818 11121 ft 334 kts
2026-04-25 20:33 26.73101 -81.90455 12372 ft 315 kts
2026-04-25 20:33 26.74511 -81.90230 13286 ft 302 kts
2026-04-25 20:34 26.77240 -81.89715 14361 ft 305 kts 15°
2026-04-25 20:34 26.78564 -81.89054 14739 ft 311 kts 26°
2026-04-25 20:34 26.81075 -81.87426 15513 ft 319 kts 27°
2026-04-25 20:34 26.82993 -81.86157 16142 ft 321 kts 27°
2026-04-25 20:35 26.84926 -81.84888 16772 ft 323 kts 27°
2026-04-25 20:35 26.86878 -81.83622 17375 ft 325 kts 26°
2026-04-25 20:35 26.88855 -81.82352 17913 ft 330 kts 26°
2026-04-25 20:35 26.90857 -81.81072 18466 ft 333 kts 26°
2026-04-25 20:36 26.92876 -81.79786 19054 ft 334 kts 25°
2026-04-25 20:36 26.94945 -81.78585 19622 ft 336 kts 23°
2026-04-25 20:36 26.97051 -81.77419 19941 ft 339 kts 23°
2026-04-25 20:36 26.99170 -81.76243 19933 ft 341 kts 23°
2026-04-25 20:37 27.01403 -81.75184 19936 ft 356 kts
2026-04-25 20:37 27.03894 -81.75016 20034 ft 365 kts 349°
2026-04-25 20:37 27.06394 -81.75710 20159 ft 377 kts 341°
2026-04-25 20:37 27.08940 -81.76600 20256 ft 391 kts 340°
2026-04-25 20:38 27.11561 -81.77553 20525 ft 399 kts 340°
2026-04-25 20:38 27.14215 -81.78514 20965 ft 402 kts 340°
2026-04-25 20:38 27.16887 -81.79467 21412 ft 405 kts 341°
2026-04-25 20:38 27.19585 -81.80415 21868 ft 407 kts 341°
2026-04-25 20:39 27.22297 -81.81358 22307 ft 409 kts 341°
2026-04-25 20:39 27.25026 -81.82303 22707 ft 412 kts 341°
2026-04-25 20:39 27.27780 -81.83257 23056 ft 415 kts 341°
2026-04-25 20:39 27.28674 -81.83566 23183 ft 416 kts 341°
2026-04-25 20:40 27.33303 -81.85170 23814 ft 420 kts 341°
2026-04-25 20:40 27.36110 -81.86145 23921 ft 424 kts 341°
2026-04-25 20:40 27.38933 -81.87123 23927 ft 424 kts 341°
2026-04-25 20:40 27.41740 -81.88096 23936 ft 422 kts 341°
2026-04-25 20:41 27.44557 -81.89075 24117 ft 426 kts 341°
2026-04-25 20:41 27.47382 -81.90056 24711 ft 421 kts 341°
2026-04-25 20:41 27.50150 -81.91017 25501 ft 412 kts 341°
2026-04-25 20:41 27.52863 -81.91961 26273 ft 404 kts 342°
2026-04-25 20:42 27.55519 -81.92886 26993 ft 397 kts 342°
2026-04-25 20:42 27.58144 -81.93801 27546 ft 394 kts 342°
2026-04-25 20:42 27.60763 -81.94716 27979 ft 393 kts 342°
2026-04-25 20:42 27.63380 -81.95628 28368 ft 394 kts 342°
2026-04-25 20:43 27.66031 -81.96552 28486 ft 402 kts 342°
2026-04-25 20:43 27.68735 -81.97496 28557 ft 410 kts 342°
2026-04-25 20:43 27.71486 -81.98456 28676 ft 417 kts 342°
2026-04-25 20:43 27.74268 -81.99428 28894 ft 420 kts 342°
2026-04-25 20:44 27.77073 -82.00410 29199 ft 421 kts 342°
2026-04-25 20:44 27.79826 -82.01362 29628 ft 420 kts 343°
2026-04-25 20:44 27.85510 -82.03270 29770 ft 432 kts 343°
2026-04-25 20:45 27.91349 -82.05224 30027 ft 441 kts 343°
2026-04-25 20:45 27.94291 -82.06213 30297 ft 441 kts 343°
2026-04-25 20:45 27.97228 -82.07203 30679 ft 439 kts 343°
2026-04-25 20:46 28.00145 -82.08187 31034 ft 437 kts 343°
2026-04-25 20:46 28.03059 -82.09172 31302 ft 437 kts 343°
2026-04-25 20:46 28.05976 -82.10156 31560 ft 438 kts 343°
2026-04-25 20:46 28.08910 -82.11076 31866 ft 437 kts 349°
2026-04-25 20:47 28.11929 -82.11505 32185 ft 436 kts 354°
2026-04-25 20:47 28.14955 -82.11760 32449 ft 436 kts 355°
2026-04-25 20:47 28.17947 -82.11979 32657 ft 437 kts 355°
2026-04-25 20:47 28.20978 -82.12213 32921 ft 436 kts 355°
2026-04-25 20:48 28.24004 -82.12470 33214 ft 435 kts 354°
2026-04-25 20:48 28.27017 -82.12746 33477 ft 434 kts 354°
2026-04-25 20:48 28.30029 -82.13035 33667 ft 435 kts 354°
2026-04-25 20:48 28.33049 -82.13329 33884 ft 435 kts 354°
2026-04-25 20:49 28.36063 -82.13623 34146 ft 434 kts 354°
2026-04-25 20:49 28.39071 -82.13915 34385 ft 433 kts 354°
2026-04-25 20:49 28.42074 -82.14208 34559 ft 434 kts 354°
2026-04-25 20:49 28.45085 -82.14502 34738 ft 434 kts 353°
2026-04-25 20:50 28.48030 -82.15200 34870 ft 433 kts 339°
2026-04-25 20:50 28.50696 -82.16779 35043 ft 433 kts 326°
2026-04-25 20:50 28.53174 -82.18727 35310 ft 431 kts 325°
2026-04-25 20:50 28.55612 -82.20711 35503 ft 431 kts 324°
2026-04-25 20:51 28.58045 -82.22709 35615 ft 432 kts 324°
2026-04-25 20:51 28.60491 -82.24708 35776 ft 433 kts 325°
2026-04-25 20:51 28.62938 -82.26692 35941 ft 432 kts 325°
2026-04-25 20:51 28.65404 -82.28678 35919 ft 435 kts 325°
2026-04-25 20:52 28.68670 -82.31296 35922 ft 433 kts 325°
2026-04-25 20:52 28.75200 -82.36513 35930 ft 428 kts 325°
2026-04-25 20:53 28.80055 -82.40400 35922 ft 425 kts 325°
2026-04-25 20:53 28.84890 -82.44280 35927 ft 422 kts 325°
2026-04-25 20:54 28.89687 -82.48133 35938 ft 421 kts 325°
2026-04-25 20:54 28.94457 -82.51967 35945 ft 422 kts 325°
2026-04-25 20:55 28.99264 -82.55834 35954 ft 424 kts 325°
2026-04-25 20:55 29.04110 -82.59737 35948 ft 426 kts 325°
2026-04-25 20:56 29.08148 -82.62993 35941 ft 428 kts 325°
2026-04-25 20:56 29.13854 -82.67600 35935 ft 430 kts 325°
2026-04-25 20:57 29.17929 -82.70894 35936 ft 431 kts 325°
2026-04-25 20:57 29.22841 -82.74869 35933 ft 432 kts 325°
2026-04-25 20:58 29.28542 -82.79489 35927 ft 432 kts 325°
2026-04-25 20:58 29.32649 -82.82820 35933 ft 432 kts 325°
2026-04-25 20:59 29.37548 -82.86798 35923 ft 431 kts 325°
2026-04-25 20:59 29.42426 -82.90765 35917 ft 429 kts 325°
2026-04-25 21:00 29.46464 -82.94053 35917 ft 427 kts 324°
2026-04-25 21:01 29.54832 -82.99948 35944 ft 423 kts 337°
2026-04-25 21:01 29.60309 -83.02477 35921 ft 423 kts 338°
2026-04-25 21:02 29.65769 -83.05001 35917 ft 422 kts 337°
2026-04-25 21:02 29.71204 -83.07566 35918 ft 422 kts 337°
2026-04-25 21:03 29.76642 -83.10156 35916 ft 423 kts 337°
2026-04-25 21:03 29.82071 -83.12751 35918 ft 423 kts 336°
2026-04-25 21:04 29.87475 -83.15336 35918 ft 423 kts 336°
2026-04-25 21:04 29.92931 -83.17949 35890 ft 425 kts 335°
2026-04-25 21:05 29.98404 -83.20573 35901 ft 427 kts 335°
2026-04-25 21:05 30.03917 -83.23218 35906 ft 429 kts 334°
2026-04-25 21:06 30.09448 -83.25875 35903 ft 431 kts 334°
2026-04-25 21:06 30.14999 -83.28545 35897 ft 433 kts 334°
2026-04-25 21:07 30.20569 -83.31227 35895 ft 434 kts 334°
2026-04-25 21:07 30.26147 -83.33916 35899 ft 434 kts 334°
2026-04-25 21:08 30.31732 -83.36613 35899 ft 434 kts 334°
2026-04-25 21:08 30.37299 -83.39306 35897 ft 433 kts 334°
2026-04-25 21:09 30.45625 -83.43338 35894 ft 432 kts 334°
2026-04-25 21:09 30.51164 -83.46026 35897 ft 431 kts 334°
2026-04-25 21:10 30.56656 -83.48694 35896 ft 430 kts 333°
2026-04-25 21:10 30.62166 -83.51373 35896 ft 429 kts 333°
2026-04-25 21:11 30.67670 -83.54054 35897 ft 428 kts 333°
2026-04-25 21:11 30.73163 -83.56733 35899 ft 427 kts 333°
2026-04-25 21:12 30.78644 -83.59408 35896 ft 427 kts 333°
2026-04-25 21:12 30.83203 -83.61637 35900 ft 427 kts 333°
2026-04-25 21:13 30.89579 -83.64758 35899 ft 428 kts 333°
2026-04-25 21:13 30.95108 -83.67468 35902 ft 428 kts 333°
2026-04-25 21:14 31.00572 -83.70149 35899 ft 429 kts 333°
2026-04-25 21:14 31.06083 -83.72856 35899 ft 430 kts 333°
2026-04-25 21:15 31.11602 -83.75572 35896 ft 431 kts 333°
2026-04-25 21:15 31.17132 -83.78295 35899 ft 431 kts 333°
2026-04-25 21:16 31.22665 -83.81025 35897 ft 432 kts 332°
2026-04-25 21:16 31.28209 -83.83762 35899 ft 432 kts 332°
2026-04-25 21:17 31.33754 -83.86503 35900 ft 433 kts 332°
2026-04-25 21:17 31.39309 -83.89252 35887 ft 434 kts 332°
2026-04-25 21:18 31.44864 -83.92007 35888 ft 433 kts 332°
2026-04-25 21:18 31.50419 -83.94763 35885 ft 434 kts 332°
2026-04-25 21:19 31.56269 -83.96721 35900 ft 441 kts 343°
2026-04-25 21:19 31.62271 -83.97999 35866 ft 441 kts 346°
2026-04-25 21:20 31.67327 -83.98983 35884 ft 439 kts 343°
2026-04-25 21:20 31.74297 -84.00544 35885 ft 439 kts 343°
2026-04-25 21:21 31.80313 -84.01913 35880 ft 440 kts 343°
2026-04-25 21:21 31.86345 -84.03273 35886 ft 442 kts 343°
2026-04-25 21:22 31.92398 -84.04628 35882 ft 444 kts 343°
2026-04-25 21:22 31.98483 -84.05990 35866 ft 445 kts 343°
2026-04-25 21:23 32.04577 -84.07354 35864 ft 446 kts 343°
2026-04-25 21:23 32.10675 -84.08724 35870 ft 447 kts 343°
2026-04-25 21:24 32.16742 -84.10085 35855 ft 446 kts 343°
2026-04-25 21:24 32.22849 -84.11457 35864 ft 446 kts 343°
2026-04-25 21:25 32.28934 -84.12827 35869 ft 445 kts 343°
2026-04-25 21:25 32.35016 -84.14200 35871 ft 444 kts 343°
2026-04-25 21:26 32.41088 -84.15571 35870 ft 443 kts 343°
2026-04-25 21:26 32.47138 -84.16939 35890 ft 442 kts 343°
2026-04-25 21:27 32.53183 -84.18310 35883 ft 442 kts 343°
2026-04-25 21:27 32.59228 -84.19681 35897 ft 442 kts 343°
2026-04-25 21:28 32.65279 -84.21059 35902 ft 442 kts 343°
2026-04-25 21:28 32.71342 -84.22438 35900 ft 444 kts 343°
2026-04-25 21:29 32.77373 -84.23810 35906 ft 445 kts 343°
2026-04-25 21:29 32.83464 -84.25200 35909 ft 447 kts 343°
2026-04-25 21:30 32.89577 -84.26598 35910 ft 448 kts 343°
2026-04-25 21:30 32.94710 -84.27771 35908 ft 449 kts 343°
2026-04-25 21:31 33.01852 -84.29406 35906 ft 450 kts 343°
2026-04-25 21:31 33.08016 -84.30820 35907 ft 451 kts 343°
2026-04-25 21:32 33.14188 -84.32237 35905 ft 451 kts 343°
2026-04-25 21:32 33.20362 -84.33658 35910 ft 452 kts 343°
2026-04-25 21:33 33.26531 -84.35079 35905 ft 452 kts 343°
2026-04-25 21:33 33.32668 -84.36494 35914 ft 451 kts 343°
2026-04-25 21:34 33.38837 -84.37921 35927 ft 451 kts 343°
2026-04-25 21:34 33.45001 -84.39346 35928 ft 451 kts 343°
2026-04-25 21:35 33.51177 -84.40778 35924 ft 452 kts 343°
2026-04-25 21:35 33.57349 -84.42209 35911 ft 452 kts 343°
2026-04-25 21:36 33.63528 -84.43658 35894 ft 452 kts 343°
2026-04-25 21:36 33.69688 -84.45013 35909 ft 455 kts 343°
2026-04-25 21:37 33.73883 -84.45918 35908 ft 460 kts 343°
2026-04-25 21:37 33.82346 -84.47760 35908 ft 467 kts 343°
2026-04-25 21:38 33.88771 -84.49168 35896 ft 470 kts 343°
2026-04-25 21:38 33.95228 -84.50588 35883 ft 472 kts 343°
2026-04-25 21:39 34.01688 -84.52009 35887 ft 471 kts 343°
2026-04-25 21:39 34.08101 -84.53542 35904 ft 468 kts 342°
2026-04-25 21:40 34.14426 -84.55218 35901 ft 467 kts 341°
2026-04-25 21:40 34.20788 -84.56902 35904 ft 467 kts 342°
2026-04-25 21:41 34.27128 -84.58560 35912 ft 466 kts 342°
2026-04-25 21:41 34.33465 -84.60211 35900 ft 465 kts 342°
2026-04-25 21:42 34.39791 -84.61859 35905 ft 464 kts 342°
2026-04-25 21:42 34.46069 -84.63500 35898 ft 464 kts 342°
2026-04-25 21:43 34.52384 -84.65152 35898 ft 463 kts 342°
2026-04-25 21:43 34.58681 -84.66802 35897 ft 463 kts 342°
2026-04-25 21:44 34.65000 -84.68385 35894 ft 463 kts 342°
2026-04-25 21:45 34.73416 -84.70454 35900 ft 464 kts 342°
2026-04-25 21:45 34.79751 -84.72024 35898 ft 465 kts 342°
2026-04-25 21:46 34.86102 -84.73605 35895 ft 465 kts 342°
2026-04-25 21:46 34.92455 -84.75190 35886 ft 465 kts 342°
2026-04-25 21:47 34.98801 -84.76778 35882 ft 466 kts 342°
2026-04-25 21:47 35.05147 -84.78365 35881 ft 466 kts 342°
2026-04-25 21:48 35.11494 -84.79957 35871 ft 466 kts 342°
2026-04-25 21:48 35.17847 -84.81553 35864 ft 466 kts 342°
2026-04-25 21:49 35.24200 -84.83149 35854 ft 466 kts 342°
2026-04-25 21:49 35.30510 -84.84738 35867 ft 465 kts 342°
2026-04-25 21:50 35.36850 -84.86337 35863 ft 465 kts 342°
2026-04-25 21:50 35.43193 -84.87941 35863 ft 465 kts 342°
2026-04-25 21:51 35.49537 -84.89548 35871 ft 465 kts 342°
2026-04-25 21:51 35.55878 -84.91157 35869 ft 465 kts 342°
2026-04-25 21:52 35.62224 -84.92765 35877 ft 465 kts 342°
2026-04-25 21:52 35.68563 -84.94370 35887 ft 465 kts 342°
2026-04-25 21:53 35.74897 -84.95977 35895 ft 465 kts 342°
2026-04-25 21:53 35.81227 -84.97586 35906 ft 465 kts 342°
2026-04-25 21:54 35.87519 -84.99188 35916 ft 465 kts 342°
2026-04-25 21:54 35.93866 -85.00804 35914 ft 466 kts 343°
2026-04-25 21:55 36.00211 -85.02426 35919 ft 465 kts 342°
2026-04-25 21:55 36.06561 -85.04053 35910 ft 466 kts 343°
2026-04-25 21:56 36.12907 -85.05680 35922 ft 466 kts 343°
2026-04-25 21:56 36.19258 -85.07310 35913 ft 466 kts 343°
2026-04-25 21:57 36.25601 -85.08941 35911 ft 466 kts 342°
2026-04-25 21:57 36.31953 -85.10578 35897 ft 466 kts 343°
2026-04-25 21:58 36.38318 -85.12220 35891 ft 466 kts 343°
2026-04-25 21:58 36.44637 -85.13852 35891 ft 466 kts 343°
2026-04-25 21:59 36.50989 -85.15498 35889 ft 466 kts 343°
2026-04-25 21:59 36.57342 -85.17146 35892 ft 466 kts 343°
2026-04-25 22:00 36.66879 -85.19624 35898 ft 467 kts 343°
2026-04-25 22:00 36.73239 -85.21281 35897 ft 467 kts 343°
2026-04-25 22:01 36.79597 -85.22940 35900 ft 466 kts 343°
2026-04-25 22:01 36.84871 -85.24317 35899 ft 466 kts 343°
2026-04-25 22:02 36.92281 -85.26257 35907 ft 465 kts 343°
2026-04-25 22:02 36.98578 -85.27911 35907 ft 465 kts 342°
2026-04-25 22:03 37.04915 -85.29577 35906 ft 465 kts 342°
2026-04-25 22:03 37.11264 -85.31248 35908 ft 466 kts 343°
2026-04-25 22:04 37.17614 -85.32923 35916 ft 466 kts 343°
2026-04-25 22:04 37.23964 -85.34600 35933 ft 466 kts 343°
2026-04-25 22:05 37.30304 -85.36277 35941 ft 465 kts 343°
2026-04-25 22:05 37.36639 -85.37955 35957 ft 465 kts 343°
2026-04-25 22:06 37.42974 -85.39639 35951 ft 466 kts 343°
2026-04-25 22:06 37.49315 -85.41326 35945 ft 465 kts 343°
2026-04-25 22:07 37.54583 -85.42731 35932 ft 466 kts 343°
2026-04-25 22:07 37.61957 -85.44696 35921 ft 465 kts 343°
2026-04-25 22:08 37.68302 -85.46393 35909 ft 465 kts 343°
2026-04-25 22:08 37.74626 -85.48088 35896 ft 464 kts 343°
2026-04-25 22:09 37.80954 -85.49785 35887 ft 464 kts 343°
2026-04-25 22:09 37.87265 -85.51481 35890 ft 463 kts 343°
2026-04-25 22:10 37.93522 -85.53167 35886 ft 462 kts 343°
2026-04-25 22:10 37.99806 -85.54863 35895 ft 461 kts 343°
2026-04-25 22:11 38.06082 -85.56558 35901 ft 461 kts 343°
2026-04-25 22:11 38.12228 -85.58675 35900 ft 452 kts 331°
2026-04-25 22:12 38.17923 -85.62018 35908 ft 450 kts 329°
2026-04-25 22:12 38.22625 -85.64869 35908 ft 450 kts 329°
2026-04-25 22:13 38.29259 -85.68836 35915 ft 451 kts 330°
2026-04-25 22:13 38.34950 -85.72199 35909 ft 451 kts 330°
2026-04-25 22:14 38.40654 -85.75567 35897 ft 452 kts 330°
2026-04-25 22:14 38.46364 -85.78945 35900 ft 452 kts 330°
2026-04-25 22:15 38.52035 -85.82305 35896 ft 452 kts 330°
2026-04-25 22:16 38.60597 -85.87395 35912 ft 452 kts 330°
2026-04-25 22:16 38.66301 -85.90792 35914 ft 452 kts 330°
2026-04-25 22:17 38.72010 -85.94195 35927 ft 453 kts 330°
2026-04-25 22:17 38.77725 -85.97612 35925 ft 453 kts 330°
2026-04-25 22:18 38.83396 -86.01008 35924 ft 452 kts 330°
2026-04-25 22:18 38.89089 -86.04420 35936 ft 451 kts 330°
2026-04-25 22:19 38.94769 -86.07835 35932 ft 449 kts 330°
2026-04-25 22:19 39.00423 -86.11236 35936 ft 448 kts 330°
2026-04-25 22:20 39.06072 -86.14632 35930 ft 447 kts 330°
2026-04-25 22:20 39.11697 -86.18021 35938 ft 446 kts 330°
2026-04-25 22:21 39.17324 -86.21418 35931 ft 446 kts 330°
2026-04-25 22:21 39.22942 -86.24816 35946 ft 446 kts 330°
2026-04-25 22:22 39.28509 -86.28189 35942 ft 445 kts 330°
2026-04-25 22:22 39.34152 -86.31616 35943 ft 445 kts 330°
2026-04-25 22:23 39.39710 -86.34997 35948 ft 444 kts 330°
2026-04-25 22:23 39.45309 -86.38407 35952 ft 444 kts 330°
2026-04-25 22:24 39.50904 -86.41825 35937 ft 445 kts 330°
2026-04-25 22:24 39.56500 -86.45247 35948 ft 445 kts 330°
2026-04-25 22:25 39.62110 -86.48679 35957 ft 445 kts 330°
2026-04-25 22:25 39.67717 -86.52118 35964 ft 446 kts 330°
2026-04-25 22:26 39.73322 -86.55562 35961 ft 445 kts 330°
2026-04-25 22:26 39.78925 -86.59013 35963 ft 446 kts 330°
2026-04-25 22:27 39.84492 -86.62448 35966 ft 446 kts 330°
2026-04-25 22:27 39.90101 -86.65916 35966 ft 446 kts 330°
2026-04-25 22:28 39.95701 -86.69383 35964 ft 446 kts 330°
2026-04-25 22:28 40.01321 -86.72842 35963 ft 446 kts 332°
2026-04-25 22:29 40.07055 -86.75985 35972 ft 447 kts 334°
2026-04-25 22:29 40.12823 -86.79007 35973 ft 446 kts 334°
2026-04-25 22:30 40.21460 -86.83591 35970 ft 446 kts 334°
2026-04-25 22:30 40.25259 -86.85633 35972 ft 446 kts 334°
2026-04-25 22:31 40.31006 -86.88733 35972 ft 445 kts 334°
2026-04-25 22:31 40.38626 -86.92852 35974 ft 445 kts 334°
2026-04-25 22:32 40.44344 -86.95949 35970 ft 445 kts 334°
2026-04-25 22:32 40.50062 -86.99053 35972 ft 444 kts 334°
2026-04-25 22:33 40.54806 -87.01631 35973 ft 444 kts 334°
2026-04-25 22:33 40.61442 -87.05244 35982 ft 444 kts 334°
2026-04-25 22:34 40.67142 -87.08354 35989 ft 443 kts 334°
2026-04-25 22:34 40.71920 -87.10965 35995 ft 443 kts 334°
2026-04-25 22:35 40.77582 -87.14064 36004 ft 443 kts 334°
2026-04-25 22:35 40.83280 -87.17189 36016 ft 443 kts 334°
2026-04-25 22:36 40.88976 -87.20320 36023 ft 443 kts 334°
2026-04-25 22:36 40.94673 -87.23457 36030 ft 443 kts 334°
2026-04-25 22:37 41.00373 -87.26601 36028 ft 444 kts 334°
2026-04-25 22:37 41.06073 -87.29752 36029 ft 444 kts 334°
2026-04-25 22:38 41.11772 -87.32905 36032 ft 444 kts 334°
2026-04-25 22:38 41.17470 -87.36066 36045 ft 444 kts 334°
2026-04-25 22:39 41.23128 -87.39212 36036 ft 444 kts 334°
2026-04-25 22:39 41.28815 -87.42378 36051 ft 443 kts 334°
2026-04-25 22:40 41.34417 -87.45499 36054 ft 425 kts 334°
2026-04-25 22:40 41.39844 -87.48529 36058 ft 421 kts 333°
2026-04-25 22:41 41.42549 -87.50045 35813 ft 423 kts 334°
2026-04-25 22:41 41.45251 -87.51560 35532 ft 417 kts 333°
2026-04-25 22:41 41.47914 -87.53053 35120 ft 413 kts 333°
2026-04-25 22:41 41.50546 -87.54529 34740 ft 409 kts 333°
2026-04-25 22:42 41.53157 -87.55995 34341 ft 405 kts 333°
2026-04-25 22:42 41.55743 -87.57449 33952 ft 402 kts 333°
2026-04-25 22:42 41.58276 -87.58874 33561 ft 398 kts 334°
2026-04-25 22:42 41.60821 -87.60308 33172 ft 395 kts 334°
2026-04-25 22:43 41.63345 -87.61730 32786 ft 391 kts 333°
2026-04-25 22:43 41.65841 -87.63139 32402 ft 388 kts 334°
2026-04-25 22:43 41.68318 -87.64538 32020 ft 385 kts 334°
2026-04-25 22:43 41.70777 -87.65927 31639 ft 382 kts 334°
2026-04-25 22:44 41.73218 -87.67307 31271 ft 379 kts 334°
2026-04-25 22:44 41.75637 -87.68676 30904 ft 376 kts 334°
2026-04-25 22:44 41.78038 -87.70037 30538 ft 373 kts 334°
2026-04-25 22:44 41.80422 -87.71388 30177 ft 370 kts 334°
2026-04-25 22:45 41.82783 -87.72728 29815 ft 367 kts 334°
2026-04-25 22:45 41.85129 -87.74060 29453 ft 364 kts 334°
2026-04-25 22:45 41.87451 -87.75379 29085 ft 361 kts 334°
2026-04-25 22:45 41.89760 -87.76693 28721 ft 359 kts 334°
2026-04-25 22:46 41.92053 -87.77999 28354 ft 357 kts 335°
2026-04-25 22:46 41.94332 -87.79298 27991 ft 357 kts 335°
2026-04-25 22:46 41.96644 -87.80619 27670 ft 376 kts 335°
2026-04-25 22:46 41.99122 -87.82037 27287 ft 397 kts 335°
2026-04-25 22:47 42.01688 -87.83503 26856 ft 401 kts 335°
2026-04-25 22:47 42.04255 -87.84969 26428 ft 400 kts 335°
2026-04-25 22:47 42.06814 -87.86430 26006 ft 399 kts 335°
2026-04-25 22:47 42.09363 -87.87888 25594 ft 397 kts 336°
2026-04-25 22:48 42.11902 -87.89342 25189 ft 396 kts 336°
2026-04-25 22:48 42.14431 -87.90792 24789 ft 394 kts 336°
2026-04-25 22:48 42.16955 -87.92241 24378 ft 394 kts 336°
2026-04-25 22:48 42.19455 -87.93752 23950 ft 393 kts 329°
2026-04-25 22:49 42.21614 -87.95989 23535 ft 392 kts 313°
2026-04-25 22:49 42.23236 -87.98922 23129 ft 391 kts 298°
2026-04-25 22:49 42.24357 -88.02258 22728 ft 389 kts 292°
2026-04-25 22:49 42.25361 -88.05647 22311 ft 388 kts 291°
2026-04-25 22:50 42.26332 -88.09045 21889 ft 387 kts 291°
2026-04-25 22:50 42.27297 -88.12427 21479 ft 384 kts 291°
2026-04-25 22:50 42.28262 -88.15777 21072 ft 381 kts 291°
2026-04-25 22:50 42.29228 -88.19100 20667 ft 379 kts 291°
2026-04-25 22:51 42.30196 -88.22406 20259 ft 377 kts 291°
2026-04-25 22:51 42.31158 -88.25678 19858 ft 373 kts 291°
2026-04-25 22:51 42.32099 -88.28873 19468 ft 369 kts 291°
2026-04-25 22:51 42.33044 -88.32085 19063 ft 365 kts 291°
2026-04-25 22:52 42.33979 -88.35259 18685 ft 362 kts 291°
2026-04-25 22:52 42.34904 -88.38402 18303 ft 359 kts 290°
2026-04-25 22:52 42.35821 -88.41523 17906 ft 356 kts 290°
2026-04-25 22:52 42.36438 -88.43629 17601 ft 356 kts 290°
2026-04-25 22:53 42.37641 -88.47733 17094 ft 352 kts 290°
2026-04-25 22:53 42.38540 -88.50806 16708 ft 350 kts 290°
2026-04-25 22:53 42.39430 -88.53853 16338 ft 347 kts 290°
2026-04-25 22:53 42.40313 -88.56881 15962 ft 345 kts 290°
2026-04-25 22:54 42.41191 -88.59893 15595 ft 343 kts 290°
2026-04-25 22:54 42.42067 -88.62896 15234 ft 342 kts 290°
2026-04-25 22:54 42.42937 -88.65885 14861 ft 341 kts 290°
2026-04-25 22:54 42.43804 -88.68869 14499 ft 340 kts 290°
2026-04-25 22:55 42.44665 -88.71835 14138 ft 338 kts 290°
2026-04-25 22:55 42.45523 -88.74795 13778 ft 337 kts 290°
2026-04-25 22:55 42.46376 -88.77741 13430 ft 335 kts 290°
2026-04-25 22:55 42.47224 -88.80676 13082 ft 334 kts 290°
2026-04-25 22:56 42.48070 -88.83603 12726 ft 334 kts 290°
2026-04-25 22:56 42.48912 -88.86520 12396 ft 332 kts 290°
2026-04-25 22:56 42.49750 -88.89427 12034 ft 331 kts 290°
2026-04-25 22:56 42.50586 -88.92331 11691 ft 327 kts 290°
2026-04-25 22:57 42.51397 -88.95152 11333 ft 317 kts 290°
2026-04-25 22:57 42.52187 -88.97902 11014 ft 308 kts 291°
2026-04-25 22:57 42.52944 -89.00536 10698 ft 300 kts 291°
2026-04-25 22:57 42.53679 -89.03098 10409 ft 291 kts 291°
2026-04-25 22:58 42.54415 -89.05670 10197 ft 283 kts 291°
2026-04-25 22:58 42.55116 -89.08124 10090 ft 275 kts 292°
2026-04-25 22:58 42.56036 -89.10331 9943 ft 265 kts 314°
2026-04-25 22:58 42.57467 -89.11848 9722 ft 261 kts 330°
2026-04-25 22:59 42.59057 -89.13039 9452 ft 261 kts 333°
2026-04-25 22:59 42.60658 -89.14181 9187 ft 259 kts 333°
2026-04-25 22:59 42.62250 -89.15314 8916 ft 258 kts 333°
2026-04-25 22:59 42.63836 -89.16451 8658 ft 257 kts 333°
2026-04-25 23:00 42.65419 -89.17592 8376 ft 258 kts 333°
2026-04-25 23:00 42.66980 -89.18723 8121 ft 256 kts 333°
2026-04-25 23:00 42.68551 -89.19863 7841 ft 256 kts 333°
2026-04-25 23:00 42.70115 -89.21005 7592 ft 255 kts 334°
2026-04-25 23:01 42.71681 -89.22152 7309 ft 255 kts 333°
2026-04-25 23:01 42.73239 -89.23295 7062 ft 254 kts 333°
2026-04-25 23:01 42.74801 -89.24442 6771 ft 256 kts 333°
2026-04-25 23:01 42.76369 -89.25592 6497 ft 255 kts 333°
2026-04-25 23:02 42.77932 -89.26739 6242 ft 255 kts 334°
2026-04-25 23:02 42.79495 -89.27887 6011 ft 255 kts 333°
2026-04-25 23:02 42.80524 -89.28646 5826 ft 255 kts 334°
2026-04-25 23:02 42.81185 -89.29134 5733 ft 255 kts 334°
2026-04-25 23:03 42.82749 -89.30288 5441 ft 255 kts 333°
2026-04-25 23:03 42.84292 -89.31426 5203 ft 250 kts 334°
2026-04-25 23:03 42.85804 -89.32541 4891 ft 245 kts 334°
2026-04-25 23:03 42.87281 -89.33634 4668 ft 239 kts 334°
2026-04-25 23:04 42.88717 -89.34691 4571 ft 230 kts 336°
2026-04-25 23:04 42.89692 -89.35141 4502 ft 220 kts 352°
2026-04-25 23:04 42.91698 -89.35224 4411 ft 213 kts
2026-04-25 23:04 42.93189 -89.35135 4309 ft 215 kts
2026-04-25 23:05 42.94674 -89.35046 4132 ft 220 kts
2026-04-25 23:05 42.96203 -89.34968 3929 ft 215 kts
2026-04-25 23:05 42.97651 -89.34903 3775 ft 203 kts
2026-04-25 23:05 42.99046 -89.34838 3531 ft 198 kts
2026-04-25 23:06 43.00403 -89.34765 3277 ft 193 kts
2026-04-25 23:06 43.01711 -89.34715 3011 ft 182 kts
2026-04-25 23:06 43.02939 -89.34657 2791 ft 172 kts
2026-04-25 23:06 43.04099 -89.34604 2612 ft 158 kts
2026-04-25 23:07 43.05214 -89.34553 2354 ft 160 kts
2026-04-25 23:07 43.06311 -89.34505 2145 ft 156 kts
2026-04-25 23:07 43.07401 -89.34454 1909 ft 157 kts
2026-04-25 23:07 43.08487 -89.34404 1710 ft 158 kts
2026-04-25 23:08 43.09538 -89.34355 1528 ft 159 kts
2026-04-25 23:08 43.10648 -89.34301 1322 ft 162 kts
2026-04-25 23:08 43.11782 -89.34250 1087 ft 163 kts
2026-04-25 23:08 43.12914 -89.34195 882 ft 162 kts
2026-04-25 23:09 43.13908 -89.34151 866 ft 114 kts
2026-04-25 23:09 43.14482 -89.34123 869 ft 51 kts
2026-04-25 23:09 43.14743 -89.34111 867 ft 34 kts
2026-04-25 23:09 43.14902 -89.34202 850 ft 26 kts 265°
2026-04-25 23:10 43.14765 -89.34295 852 ft 23 kts 192°
2026-04-25 23:10 43.14613 -89.34337 868 ft 22 kts 187°
2026-04-25 23:10 43.14461 -89.34344 870 ft 21 kts 182°
2026-04-25 23:10 43.14302 -89.34351 872 ft 25 kts 182°
2026-04-25 23:11 43.14126 -89.34340 871 ft 26 kts 161°
2026-04-25 23:11 43.13951 -89.34296 868 ft 25 kts 182°
2026-04-25 23:11 43.13782 -89.34304 865 ft 23 kts 181°
2026-04-25 23:11 43.13679 -89.34372 864 ft 11 kts 251°
2026-04-25 23:12 43.13675 -89.34471 866 ft 9 kts 272°
2026-04-25 23:12 43.13676 -89.34493 866 ft 0 kts 270°